Weather in Alferovo

Russia / Vladimir Oblast     55°30′57″N   41°13′07″E
temp.,
°C
wind,
m/s
gust,
m/s
humid.,
%
clouds,
%
prec.,
mm/h
press.,
hPa
HPBL,
m
16 may, sun
sun1600:00+13ssw399448 0.0 1012177
03:00+12s39960 0.0 1013193
06:00+14ssw28895 0.0 1013239
09:00+19sw376925 0.0 1014606
12:00+23sw575011 0.0 10142006
15:00+21ssw2660100 0.0 1014287
18:00+19sw227256 0.0 101444
21:00+15sw118331 0.0 101511
17 may, mon
mon1700:00+14wsw11855 0.0 101511
03:00+13ese118537 0.0 101610
06:00+15e12801 0.0 101784
09:00+21e355916 0.1 1016466
12:00+25ese455146 0.0 10161122
15:00+27ese464496 0.0 10141512
18:00+24sse4857100 0.0 1014426
21:00+17se3879100 0.0 1015145
18 may, tue
tue1800:00+16se398259 0.0 1014150
03:00+15se3118088 0.0 1014188
06:00+16ese3117156 0.0 1014218
09:00+23se5104645 0.0 1014493
12:00+26se583677 0.0 1013923
15:00+28se583466 0.0 10121638
18:00+24se4115177 0.0 1012734
21:00+19ese415745 0.0 1012397
19 may, wed
wed1900:00+18ese4157649 0.0 1012351
03:00+17ese517645 0.0 1011394
06:00+17ese517635 0.0 1011464
09:00+24ese6154598 0.0 1010743
12:00+28se713345 0.0 10091761
15:00+28ese7144166 0.0 10083086
18:00+26se6125367 0.0 10072120
21:00+16ese2893100 15.1 1009289
20 may, thu
thu2000:00+16se3997100 0.7 1009271
03:00+15sse399690 1.9 1007408
06:00+14sse4109355 0.0 1007647
09:00+17sse697085 0.2 10071250
12:00+15sse598057 0.9 1008949
15:00+16sse61076100 1.9 10081349
18:00+13s5118984 0.9 1008842
21:00+11ssw5119296 1.1 1009724